Retour au catalogue

HAWK-12B

ActifScienceSSO
NORAD 64622·PAYLOAD·🇺🇸 United States

Lancé Jun 26, 2025 depuis Rocket Lab Launch Complex 1

Loading…

Prochains Passages (prochaines 24 heures)

TLE

FraisSource: Space-Track

Époque: Sep 14, 2026, 11:07 UTC

1 64622U 25138B   26257.46370201  .00002822  00000-0  13880-3 0  9991
2 64622  97.4513 259.2392 0012707 179.3535 180.7718 15.18774570 67418

Suivez HAWK-12B en temps réel avec AllMySat

Download on the App Store